SCP
0 0 0 0 0 0 0 0 0 0 0 0 0 0 0 0 0 0 0 0 0 0 0 0 1 1 1 0 0 1 1 2 2 3 3 2 2 1 1 1 1 1 1 0
0 0 0 0 0 0 0 0 0 0 0 0 0 0 0 0 0 0 0 0 0 0 0 1 1 1 1 1 0 1 1 1 2 3 2 2 1 1 1 1 1 1 1 1
0 0 0 0 0 0 0 0 0 0 0 0 0 0 0 0 0 0 0 0 0 0 0 1 1 1 1 1 1 1 1 1 2 2 2 2 1 1 1 1 1 1 1 1
0 0 0 0 0 0 0 0 0 0 0 0 0 0 0 0 0 0 0 0 0 0 0 1 1 1 1 1 1 1 1 1 1 1 1 1 1 1 1 1 1 1 1 1
0 0 0 0 0 0 0 0 0 0 0 0 0 0 0 0 0 0 0 0 0 0 1 1 1 1 1 1 1 1 1 1 1 1 1 1 1 1 1 1 1 1 1 1
0 0 0 0 0 0 0 0 0 0 0 0 0 0 0 0 0 0 0 0 0 0 1 1 1 1 1 1 1 1 1 1 1 1 1 1 1 1 1 1 1 1 1 1
0 0 0 0 0 0 0 0 0 0 0 0 0 0 0 0 0 0 0 0 0 0 1 1 1 1 1 1 1 1 1 1 0 0 0 0 0 1 1 1 1 1 1 1
0 0 0 0 0 0 0 0 0 0 0 0 0 0 0 0 0 0 0 0 0 0 1 1 1 1 1 1 0 0 0 0 0 0 0 0 0 0 0 1 1 1 1 1
0 0 0 0 0 0 0 0 0 0 0 0 0 0 0 0 0 0 0 0 0 0 1 1 1 1 1 1 0 0 0 0 0 0 0 0 0 0 0 0 0 0 0 0
0 0 0 0 0 0 0 0 0 0 0 0 0 0 0 0 0 0 0 0 0 0 0 0 0 0 1 1 1 1 1 1 0 0 0 0 0 0 0 0 0 0 0 0
0 0 0 0 0 0 0 0 0 0 0 0 0 0 0 0 0 0 0 0 0 0 0 0 0 0 0 1 1 1 1 1 1 1 0 0 0 0 0 0 0 0 0 0
0 0 0 0 0 0 0 0 0 0 0 0 0 0 0 0 0 0 0 0 0 0 0 0 0 0 0 1 1 1 1 1 1 1 1 1 0 0 0 0 0 0 0 0
0 0 0 0 0 0 0 0 0 0 0 0 0 0 0 0 0 0 0 0 0 0 0 0 0 0 0 1 1 1 1 1 2 1 1 1 1 1 0 0 0 0 0 0
0 0 0 0 0 0 0 0 0 0 0 0 0 0 0 0 0 0 0 0 0 0 0 0 0 0 0 1 1 1 1 2 2 2 1 1 1 1 1 1 1 0 0 0
0 0 0 0 0 0 0 0 0 0 0 0 0 0 0 0 0 0 0 0 0 0 0 0 0 0 0 0 1 1 1 2 2 2 1 1 1 1 1 1 1 1 0 0
0 0 0 0 0 0 0 0 0 0 0 0 0 0 0 0 0 0 0 0 0 0 0 0 0 0 0 0 1 1 1 2 2 1 1 1 1 1 1 1 1 1 1 1
0 0 0 0 0 0 0 0 0 0 0 0 0 0 0 0 0 0 0 0 0 0 0 0 0 0 0 1 1 1 1 1 1 1 1 1 1 2 2 1 1 1 1 1
0 0 0 0 0 0 0 0 0 0 0 0 0 0 0 0 0 0 0 0 0 0 0 0 0 0 0 1 1 1 1 1 1 1 1 1 2 2 2 1 1 1 1 1
0 0 0 0 0 0 0 0 0 0 0 0 0 0 0 0 0 0 0 0 0 0 0 0 0 0 0 0 0 1 1 1 1 1 1 1 1 1 1 1 1 1 1 1
0 0 0 0 0 0 -0 0 0 0 0 0 0 0 0 0 0 0 0 0 0 0 0 0 0 0 0 0 0 0 0 0 0 0 0 0 0 1 1 1 1 1 1 1
0 0 0 0 0 0 -0 -0 0 0 0 0 0 0 0 0 0 0 0 0 0 0 0 0 0 0 0 0 0 0 0 0 0 0 0 0 0 0 0 0 0 0 0 0
0 0 0 0 0 0 -0 -0 0 0 0 0 0 0 0 0 0 0 0 0 0 0 0 0 0 0 0 0 0 0 0 0 0 0 0 0 0 0 0 0 0 0 0 0
0 0 0 0 0 0 -0 -0 0 0 0 0 0 0 0 0 0 0 0 0 0 0 0 0 0 0 0 0 0 0 0 0 0 0 0 0 0 0 0 0 0 0 0 0
0 0 0 0 0 0 -0 -0 -0 0 0 0 0 0 0 0 0 0 0 0 0 0 0 0 0 0 0 0 0 0 0 0 0 0 0 0 0 0 0 0 0 0 0 0
0 0 0 0 0 0 -0 -0 -0 0 0 0 -0 0 0 0 0 0 0 0 0 0 0 0 0 0 0 0 0 0 0 0 0 0 0 0 0 0 0 0 0 0 0 0
0 0 0 0 0 0 -0 -0 -0 0 0 0 0 0 0 0 0 0 0 0 0 0 0 0 0 0 0 0 0 0 0 0 0 0 0 0 0 0 0 0 0 0 0 0
Wind_Speed
4 7 5 4 4 7 10 11 14 10 5 8 10 12 13 10 7 7 7 7 8 8 9 7 8 7 5 3 1 3 5 6 5 4 3 2 2 4 3 3 5 4 3 3
6 6 4 3 4 7 9 10 13 13 9 8 11 14 15 15 11 9 10 10 10 8 8 9 10 8 5 5 3 1 3 3 4 4 4 2 2 3 4 4 5 5 5 4
8 5 2 5 7 8 8 6 7 10 11 8 10 13 17 18 16 13 12 10 8 6 11 14 12 9 7 6 5 3 3 5 5 5 3 2 1 1 2 4 4 5 6 6
8 7 5 8 10 10 10 5 4 4 5 5 5 8 13 14 11 10 10 9 7 5 6 13 12 11 9 7 6 6 3 5 6 5 3 3 3 4 4 4 5 6 7 6
10 8 7 10 11 8 7 3 5 5 5 8 9 8 10 10 11 7 4 5 7 6 7 13 12 10 10 8 5 6 5 5 6 4 4 3 3 4 4 4 6 6 5 6
15 13 10 9 9 8 5 5 7 8 6 9 10 8 7 4 6 6 4 2 3 6 8 13 11 11 10 7 6 6 6 6 4 2 3 5 5 4 3 2 3 4 3 4
15 12 9 6 8 9 9 7 4 4 5 5 2 4 7 6 5 3 3 2 3 7 10 13 12 10 9 7 6 6 7 6 4 4 6 6 5 3 3 4 4 3 2 3
15 11 5 3 8 10 8 10 7 5 4 3 3 6 5 7 5 3 1 3 6 9 10 12 11 10 9 8 7 6 7 6 5 4 4 2 7 2 1 3 2 3 2 3
13 15 15 12 11 13 13 11 10 9 9 9 7 6 1 2 3 2 4 8 9 10 11 12 11 10 9 8 7 6 7 6 5 5 2 1 4 4 3 2 2 2 2 2
14 19 17 18 16 14 14 11 5 3 4 7 4 2 6 14 17 12 3 5 8 7 9 11 10 10 10 8 7 7 7 7 6 4 2 2 3 4 3 1 2 3 3 4
16 14 15 16 14 12 9 9 7 4 5 3 2 2 4 8 14 18 15 10 8 8 6 4 2 5 9 10 9 8 7 6 7 6 4 5 2 2 3 2 2 2 2 4
11 9 12 16 11 11 7 9 9 3 4 4 1 2 7 7 9 14 17 13 7 2 2 4 3 4 5 9 10 10 9 7 7 6 5 5 5 4 3 4 4 4 4 4
9 8 11 11 7 13 9 11 15 9 1 2 2 4 9 10 10 11 14 15 11 8 5 1 1 1 2 3 6 8 9 8 8 6 5 5 5 6 5 4 5 4 5 5
5 10 9 10 10 6 6 13 17 10 3 4 4 6 11 12 11 11 11 12 10 9 7 5 1 2 3 3 4 5 7 8 9 7 5 5 5 6 5 4 4 4 5 5
9 11 13 12 11 8 7 11 13 9 6 3 5 11 15 14 13 11 11 11 9 8 7 5 3 2 2 3 3 3 4 7 9 7 5 5 5 5 5 4 4 3 4 4
9 11 14 15 12 9 7 18 14 12 14 13 14 13 17 17 14 13 14 12 10 7 5 4 3 1 1 2 3 3 3 5 7 8 7 5 4 2 4 3 4 4 4 4
10 11 11 10 12 7 9 16 16 15 18 15 15 14 18 19 17 16 16 14 12 10 9 7 7 5 3 3 4 4 4 4 3 3 3 3 2 1 2 3 4 4 4 4
11 11 6 8 10 5 6 7 13 11 15 19 17 18 20 20 12 12 15 14 14 14 12 11 9 9 10 10 9 8 8 8 8 8 7 6 5 3 2 3 3 4 4 5
10 8 5 5 6 6 6 10 11 8 6 15 18 20 21 22 13 12 16 13 13 12 11 10 10 11 11 10 10 10 10 9 9 8 8 7 7 6 5 4 4 4 4 4
11 8 6 7 6 5 5 12 13 6 0 13 18 19 20 20 13 12 15 10 10 9 9 9 9 10 10 10 9 9 9 8 7 7 7 6 6 5 5 5 4 4 4 3
12 9 9 8 5 4 5 11 9 5 6 15 16 17 17 16 13 14 13 7 6 6 7 7 7 7 7 8 8 8 7 6 5 5 4 4 4 4 4 4 4 4 3 2
9 8 8 7 6 4 9 8 6 4 9 12 15 16 16 17 17 14 11 5 5 5 5 5 5 5 6 6 6 6 5 3 3 3 2 2 3 4 4 4 4 4 3 3
7 7 5 5 4 4 4 3 3 5 10 12 14 16 17 17 16 14 11 5 3 3 4 3 3 3 4 5 5 4 3 2 2 2 2 2 3 3 4 5 4 3 3 2
5 6 5 4 5 6 5 5 6 7 10 13 14 16 16 16 16 13 10 6 1 3 3 1 0 3 3 3 4 4 3 3 1 3 2 4 5 5 5 5 5 5 5 4
3 4 5 3 6 6 6 9 9 10 11 13 14 14 14 15 14 12 10 6 1 3 3 1 2 2 1 3 4 4 4 5 3 3 4 5 4 4 4 5 5 5 6 6
1 3 4 4 7 6 9 9 10 11 12 14 14 15 14 14 13 11 9 7 3 1 2 2 2 2 2 3 4 4 3 5 4 4 4 3 2 2 2 3 4 9 8 10
Wind_Direction
241 255 260 287 311 300 302 300 299 305 339 314 295 297 297 278 243 227 230 232 224 205 190 173 138 119 122 125 136 134 146 165 152 139 146 149 152 150 161 168 179 183 199 216
280 272 305 304 280 283 291 295 300 309 333 319 307 300 291 279 260 237 229 228 224 208 171 133 129 126 139 126 100 59 141 142 132 128 140 163 188 190 178 176 182 184 197 209
280 276 249 273 276 272 271 279 299 310 319 315 313 294 280 269 256 239 224 223 225 207 167 145 142 133 126 117 123 87 65 100 94 111 116 137 163 235 197 179 190 193 203 210
269 247 246 266 267 263 269 253 246 289 310 300 298 293 286 291 282 246 217 203 205 212 159 143 139 135 131 125 129 126 111 116 118 127 148 169 179 200 206 193 193 198 206 207
281 284 266 271 276 270 275 225 224 235 246 267 258 264 274 297 303 279 224 197 180 164 138 133 134 132 126 125 125 118 119 105 118 146 156 179 212 219 221 201 185 196 202 202
266 262 252 262 284 275 258 225 235 233 238 255 245 229 274 290 316 337 8 42 121 135 131 126 122 116 113 114 114 114 118 101 105 135 172 189 208 214 205 185 170 185 182 198
308 286 247 223 270 258 235 241 264 249 224 257 299 218 239 252 285 328 334 358 126 131 132 125 123 121 125 133 139 133 125 126 153 198 217 198 178 205 197 176 170 168 175 191
312 314 355 332 290 289 258 242 239 264 264 296 275 247 237 210 232 240 187 114 122 131 131 130 133 135 144 151 156 152 145 152 165 222 243 192 137 128 67 99 124 155 162 182
320 312 320 317 304 293 284 269 267 267 270 267 237 222 176 299 249 226 152 137 142 147 140 141 147 150 155 160 164 162 154 158 171 220 229 321 104 119 118 132 130 127 153 166
315 310 311 312 300 279 280 281 266 244 280 265 254 57 16 356 352 351 18 125 135 136 141 149 153 158 162 166 169 175 177 174 174 213 181 108 80 117 92 97 141 156 161 134
317 307 308 304 299 308 322 314 294 271 244 259 314 65 78 23 358 348 356 19 49 59 49 45 130 171 170 167 171 177 188 186 170 186 170 135 162 138 148 173 125 130 138 139
339 323 305 300 321 20 11 328 301 262 279 308 290 90 85 61 7 345 342 349 353 53 131 153 177 195 184 175 178 183 189 187 168 175 164 166 168 162 191 182 169 184 168 163
340 312 310 313 343 23 12 332 318 315 321 299 317 87 51 33 7 340 331 326 330 332 327 323 142 190 199 188 187 185 186 177 158 165 174 174 177 183 203 199 177 182 170 177
310 294 298 299 309 320 320 301 299 310 342 334 356 21 24 15 350 331 319 312 317 314 312 309 252 209 202 208 205 198 186 164 153 160 182 198 205 186 193 202 176 183 190 189
334 310 312 307 297 271 260 287 295 310 337 347 29 42 15 357 337 330 323 321 319 310 297 289 276 235 178 185 198 205 177 156 153 158 184 207 225 191 181 190 174 197 210 210
334 319 320 311 302 296 28 13 17 33 37 48 47 29 356 348 355 359 354 349 345 332 329 335 331 19 116 159 162 153 144 140 149 162 186 203 224 204 177 190 191 206 208 223
343 337 329 310 309 298 54 14 15 37 39 39 37 10 354 356 6 11 4 3 5 11 19 26 27 37 48 82 100 99 102 101 119 146 161 161 180 233 212 225 226 214 208 214
352 347 335 322 337 58 69 18 6 9 37 26 11 3 359 351 344 17 14 14 18 23 27 29 36 42 50 58 64 65 59 56 49 43 36 32 25 3 329 290 268 241 226 214
9 356 350 347 349 77 37 5 354 336 349 16 359 353 352 347 348 11 10 20 21 21 24 29 37 47 49 48 55 63 62 56 48 36 26 22 18 7 353 331 309 287 267 244
2 13 13 357 4 30 355 333 320 268 258 0 348 345 346 349 356 348 347 13 26 21 25 29 34 43 50 49 51 59 59 56 48 39 33 25 20 3 354 342 329 316 298 278
358 8 16 5 21 59 354 339 347 54 330 322 328 334 339 339 328 320 331 5 38 34 28 38 40 39 45 54 57 56 54 56 55 47 39 27 18 4 9 350 342 337 329 323
9 3 9 1 12 20 15 7 19 323 304 312 322 327 329 324 320 327 333 355 39 50 43 44 46 45 45 46 63 70 52 52 73 59 30 29 46 20 14 4 357 355 356 347
35 19 350 356 11 13 8 11 330 302 309 315 319 321 323 321 323 328 331 341 55 56 66 58 53 56 64 55 45 63 53 7 80 74 12 18 64 55 32 18 8 1 3 351
23 6 350 358 17 11 35 6 339 325 312 311 313 317 319 319 320 324 324 323 95 84 79 19 58 69 62 63 59 47 21 328 349 107 57 52 53 48 45 32 18 19 16 9
343 343 341 345 13 1 359 347 333 322 316 316 317 318 318 317 318 323 323 327 47 109 122 317 36 34 23 75 75 54 13 338 349 67 75 77 73 67 64 62 39 26 45 36
30 3 347 353 1 336 325 329 327 324 322 322 322 320 320 317 317 324 328 332 344 101 137 139 113 298 338 61 80 78 22 349 14 49 51 60 87 84 101 121 101 57 59 55